Location: Newark
(49.7808°N, 2.3717°E)
Time: 06:37:15
(UTC+00:00)

ISS - Visible Passes

Search period start: 18 January 2020 00:00
Search period end: 28 January 2020 00:00
Orbit: 415 x 421 km, 51.6° (Epoch: 18 January)

Date Brightness Start Highest point End Pass type
(mag) Time Alt. Az. Time Alt. Az. Time Alt. Az.
20 Jan -1.0 18:59:22 10° SSW 18:59:48 13° SSW 18:59:48 13° SSW visible
21 Jan -1.8 18:12:03 10° S 18:14:05 18° SSE 18:14:05 18° SSE visible
22 Jan -1.4 17:25:18 10° SSE 17:26:36 12° SE 17:27:55 10° ESE visible
22 Jan -1.9 18:59:30 10° SW 19:01:13 27° SW 19:01:13 27° SW visible
23 Jan -3.0 18:11:43 10° SW 18:14:51 36° SSE 18:15:21 34° SE visible
23 Jan -0.3 19:48:08 10° W 19:48:17 11° W 19:48:17 11° W visible
24 Jan -2.3 17:24:07 10° SSW 17:26:57 25° SE 17:29:24 12° E visible
24 Jan -2.4 19:00:05 10° WSW 19:02:20 39° WSW 19:02:20 39° WSW visible
25 Jan -3.8 18:12:05 10° WSW 18:15:26 71° SSE 18:16:20 44° E visible
25 Jan -0.3 19:48:57 10° W 19:49:16 12° W 19:49:16 12° W visible
26 Jan -3.3 17:24:09 10° SW 17:27:26 51° SSE 17:30:18 13° ENE visible
26 Jan -2.5 19:00:50 10° W 19:03:14 41° WNW 19:03:14 41° WNW visible
27 Jan -3.8 18:12:44 10° W 18:16:06 75° NNW 18:17:09 40° ENE visible
27 Jan -0.4 19:49:41 10° WNW 19:50:05 13° WNW 19:50:05 13° WNW visible
